Flag for Switzerland Weather past 2 weeks in Schaffhausen, Schaffhausen, Switzerland

Now
66 °F

Partly sunny.


Feels Like: 66 °F
Forecast: 42 / 72 °F
Wind: 9 mph from Southwest

Location: Zurich-Kloten

Current Time: May 28, 2015 at 2:49:45 PM

Latest Report: May 28, 2015 at 2:00 PM


Visibility: 16 mi

Pressure: 30.03 "Hg

Humidity: 39%

Dew point: 40 °F

Location of SchaffhausenLocation

Historic Weather in Schaffhausen — Graph

°F

Schaffhausen temperature yesterday

Maximum temperature yesterday: 61 °F (at 5:00 PM)
Minimum temperature yesterday: 43 °F (at 7:00 AM)
Average temperature yesterday: 53 °F

Past Weeks' High & Low Weather Summary

 TemperatureHumidityPressure
High77 °F (May 13, 4:00 PM)98% (May 18, 6:00 AM)30.34 "Hg (May 18, 6:00 AM)
Low38 °F (May 28, 5:00 AM)39% (May 27, 6:00 PM)29.72 "Hg (May 18, 6:00 PM)
Average55 °F73%30.06 "Hg
* Reported May 13 1:00 PM — May 28 1:00 PM, Schaffhausen, Weather by CustomWeather, © 2015

Note: Actual official high and low records may vary slightly from our data, if they occured in-between our weather recording intervals... More about our weather records

Advertising

Schaffhausen weather history for previous 24 hours

 ConditionsComfort  
Time TempWeatherWind HumidityBarometerVisibility
1:00 PM
Thu, May 28
64 °FMild.7 mph44%30.06 "HgN/A
12:00 PM62 °FRefreshingly cool.8 mph47%30.07 "HgN/A
11:00 AM58 °FScattered clouds.5 mph56%30.10 "Hg12 mi
10:00 AM56 °FCool.3 mph66%30.12 "HgN/A
9:00 AM52 °FCool.1 mph78%30.14 "HgN/A
8:00 AM47 °FScattered clouds.1 mph86%30.16 "Hg9 mi
7:00 AM43 °FQuite cool.No wind93%30.17 "HgN/A
6:00 AM39 °FChilly.2 mph97%30.18 "HgN/A
5:00 AM38 °FFog.1 mph93%30.17 "Hg9 mi
4:00 AM40 °FChilly.2 mph90%30.17 "HgN/A
3:00 AM41 °FQuite cool.2 mph93%30.18 "HgN/A
2:00 AM41 °FClear.2 mph92%30.19 "Hg12 mi
1:00 AM44 °FQuite cool.1 mph88%30.19 "HgN/A
12:00 AM47 °FCool.2 mph83%30.19 "HgN/A
10:00 PM
Wed, May 27
51 °FCool.No wind72%30.18 "HgN/A
9:00 PM55 °FCool.2 mph58%30.16 "HgN/A
8:00 PM59 °FPassing clouds.2 mph44%30.15 "Hg22 mi
7:00 PM60 °FRefreshingly cool.1 mph39%30.15 "HgN/A
6:00 PM61 °FRefreshingly cool.3 mph39%30.16 "HgN/A
5:00 PM61 °FScattered clouds.2 mph41%30.18 "Hg19 mi
4:00 PM60 °FRefreshingly cool.3 mph44%30.19 "HgN/A
3:00 PM59 °FRefreshingly cool.3 mph43%30.20 "HgN/A
2:00 PM58 °FPartly sunny.3 mph45%30.22 "Hg14 mi
Weather by CustomWeather, © 2015

See weather overviewHow to use our weather pages